Regional Weather Roundup
Issued by NWS

Home | Current Version | Previous Version | Graphics & Text | Print | Product List | Glossary On
Versions: 1 2 3 4 5 6 7 8 9 10 11 12 13 14 15 16 17 18 19 20 21 22 23 24 25 26 27 28 29 30 31 32 33 34 35 36 37 38 39 40 41 42 43 44 45 46 47 48 49 50
000
ASUS43 KIND 292059
RWRIN

WEATHER ROUNDUP FOR INDIANA
NATIONAL WEATHER SERVICE INDIANAPOLIS IN
500 PM EDT WED JUL 29 2015

NOTE: "FAIR" INDICATES FEW OR NO CLOUDS BELOW 12,000 FEET WITH NO
SIGNIFICANT WEATHER AND/OR OBSTRUCTIONS TO VISIBILITY.

* - STATION DOES NOT REPORT WEATHER SUCH AS PRECIPITATION OR FOG.

+ - STATION NOT QUALITY CONTROLLED BY THE NATIONAL WEATHER SERVICE.
    USE DATA WITH CAUTION...ESPECIALLY DEWPOINT AND RELATIVE
    HUMIDITY OBSERVATIONS.

INZ001>003-010>013-019-020-292200-
NORTHWEST INDIANA

CITY           SKY/WX    TMP DP  RH WIND       PRES   REMARKS
GARY /AIRPORT/ MOSUNNY   86  64  48 NE7       29.96F
MONTICELLO +   MOSUNNY   87  75  69 NW10G16   29.94F HX  96
RENSSELAER +   SUNNY     86  68  54 W12G17    29.96S

$$

LMZ046-743>745-292200-
SOUTHERN LAKE MICHIGAN

STATION/POSITION TIME  TEMP    WIND        PRES    WAVE
                       AIR SEA DIR/SP/G            HT
                 (UTC) (F)     (DEG/KT/KT) (MB)    (FT)
BURNS HARBOR     2000   80      40/  5/  6 1015.6F
MICHIGAN CITY    2000   80     340/  5/  6   N/A
5NW MICH CITY    2000   77 77  360/  4/  6   N/A     1

$$

INZ004-005-014>016-021>024-292200-
NORTH CENTRAL INDIANA

CITY           SKY/WX    TMP DP  RH WIND       PRES   REMARKS
ELKHART        SUNNY     84  63  48 W12G20    29.96S
GOSHEN         MOSUNNY   84  71  65 NW16      29.93F
PERU/GRISSOM   MOSUNNY   88  75  66 W13       29.93F HX  97
SOUTH BEND     SUNNY     84  59  42 NW13      29.96F

$$

INZ006>009-017-018-025>027-292200-
NORTHEAST INDIANA

CITY           SKY/WX    TMP DP  RH WIND       PRES   REMARKS
ANGOLA *+      MOSUNNY   88  82  84 NW7       29.93S HX 108
FORT WAYNE     PTSUNNY   88  74  63 W16       29.93F HX  96

$$

INZ028-029-035-036-043>045-051>053-292200-
WEST CENTRAL INDIANA

CITY           SKY/WX    TMP DP  RH WIND       PRES   REMARKS
CRAWFORDSVL +  PTSUNNY   84  72  66 W8          N/A
GREENCASTLE +  PTSUNNY   86  72  62 NW8       29.98F
LAFAYETTE      PTSUNNY   86  74  67 W13       29.95F
TERRE HAUTE    PTSUNNY   86  76  71 NW6       29.97F HX  96

$$

INZ030>032-037>040-046>048-054>057-064-065-292200-
CENTRAL INDIANA

CITY           SKY/WX    TMP DP  RH WIND       PRES   REMARKS
GREENWOOD *+   PTSUNNY   86  70  58 NW8       29.97
INDIANAPOLIS   CLOUDY    86  75  69 NW13      29.96S HX  95
-EAGLE CREEK   CLOUDY    85  75  72 NW9       29.96S
KOKOMO *+      PTSUNNY   88  75  66 NW12      29.95S HX  97
MT COMFORT *+  PTSUNNY   86  73  66 NW13      29.97S
SHELBYVILLE    MOSUNNY   88  76  67 NW12      29.95R HX  99

$$

INZ033-034-041-042-049-050-058-059-292200-
EAST CENTRAL INDIANA

CITY           SKY/WX    TMP DP  RH WIND       PRES   REMARKS
MUNCIE         PTSUNNY   86  75  69 W10       29.95S HX  95

$$

INZ060-061-067>069-081>083-085>088-292200-
SOUTHWEST INDIANA

CITY           SKY/WX    TMP DP  RH WIND       PRES   REMARKS
EVANSVILLE     MOSUNNY   91  77  63 NW8       29.96F HX 104
HUNTINGBURG *+ SUNNY     91  79  66 W12       29.95F HX 107

$$

INZ062-063-066-070>080-084-089>092-292200-
SOUTH CENTRAL AND SOUTHEAST INDIANA

CITY           SKY/WX    TMP DP  RH WIND       PRES   REMARKS
BLOOMINGTON    CLOUDY    84  78  82 CALM      29.99R HX  95
MADISON *+     PTSUNNY   91  70  49 NW3       29.96F HX  97
SEYMOUR +      MOSUNNY   90  75  62 NW9       29.95R THUNDER HX 100

$$



USA.gov is the U.S. government's official web portal to all federal, state and local government web resources and services.